EW7199 Weather Reports


Display with metric or nautical units.
time (UTC)temp
F
wind
direction
speed
MPH
gust
MPH
rain 1hr
in
rain 24hr
in
rain mn
in
humidity
%
barometer
mb
20260508121907 63 240 3.0 5.0 0.00 0.14 0.17 91 1010.7
20260508121406 63 238 3.0 3.0 0.00 0.14 0.17 91 1010.7
20260508120908 63 238 3.0 3.0 0.00 0.14 0.17 90 1010.7
20260508120406 63 235 3.0 3.0 0.00 0.14 0.17 90 1010.6
20260508115908 63 232 3.0 5.0 0.00 0.14 0.17 89 1010.6
20260508115407 63 233 3.0 3.0 0.00 0.14 0.17 89 1010.5
20260508114908 63 247 2.0 3.0 0.00 0.14 0.17 89 1010.5
20260508114406 63 231 2.0 6.0 0.00 0.14 0.17 89 1010.5
20260508113906 63 265 3.0 6.0 0.00 0.14 0.17 89 1010.4
20260508113407 63 263 3.0 3.0 0.00 0.14 0.17 89 1010.4
20260508112407 63 263 3.0 3.0 0.00 0.14 0.17 90 1010.4
20260508111907 63 266 3.0 3.0 0.00 0.14 0.17 90 1010.4
20260508111407 63 258 1.0 3.0 0.00 0.14 0.17 91 1010.4
20260508110906 63 246 2.0 3.0 0.01 0.14 0.17 91 1010.5
20260508110406 63 242 3.0 3.0 0.01 0.14 0.17 91 1010.5
20260508105906 62 257 3.0 3.0 0.01 0.14 0.17 91 1010.6
20260508105405 62 241 2.0 3.0 0.01 0.14 0.17 92 1010.7
20260508104906 62 231 2.0 3.0 0.01 0.14 0.17 92 1010.7
20260508104408 62 237 2.0 3.0 0.01 0.14 0.17 92 1010.8
20260508102906 62 253 2.0 3.0 0.01 0.14 0.17 92 1010.9
20260508102411 61 242 2.0 3.0 0.01 0.14 0.17 91 1010.9
20260508101907 62 238 2.0 3.0 0.01 0.14 0.17 91 1010.9
20260508101411 62 243 3.0 3.0 0.01 0.14 0.17 91 1010.8
20260507191910 63 87 2.0 3.0 0.00 0.13 0.13 70 1014.3
20260507191411 63 84 2.0 3.0 0.00 0.13 0.13 70 1014.3
20260507190908 63 72 2.0 3.0 0.00 0.13 0.13 70 1014.1
20260507190423 63 80 2.0 3.0 0.00 0.13 0.13 70 1014.1
20260507185908 63 81 2.0 3.0 0.00 0.13 0.13 69 1014.1
20260507185410 63 76 2.0 3.0 0.00 0.13 0.13 69 1014.2
20260507184910 63 71 2.0 3.0 0.00 0.13 0.13 68 1014.2
20260507184411 64 101 2.0 3.0 0.00 0.13 0.13 68 1014.3
20260507183909 64 91 2.0 3.0 0.00 0.13 0.13 68 1014.3
20260507183410 64 103 2.0 3.0 0.00 0.13 0.13 68 1014.2
20260507182910 64 86 2.0 3.0 0.00 0.13 0.13 68 1014.3
20260507182409 64 103 2.0 3.0 0.00 0.13 0.13 68 1014.3
20260507181909 64 125 2.0 3.0 0.00 0.13 0.13 68 1014.4
20260507181410 64 124 2.0 3.0 0.00 0.13 0.13 68 1014.4
20260507180910 64 114 2.0 3.0 0.00 0.13 0.13 68 1014.3
20260507180410 64 106 2.0 3.0 0.00 0.13 0.13 68 1014.2
20260507175909 64 111 2.0 3.0 0.00 0.13 0.13 68 1014.1
20260507175410 64 129 2.0 3.0 0.00 0.13 0.13 68 1014.1
20260507174910 65 97 2.0 3.0 0.00 0.13 0.13 67 1014.1
20260507174412 65 89 2.0 6.0 0.00 0.13 0.13 67 1014.1
20260507173909 65 92 1.0 3.0 0.00 0.13 0.13 67 1014.1
20260507173409 65 157 2.0 3.0 0.00 0.13 0.13 66 1014.2
20260507172909 65 122 2.0 3.0 0.00 0.13 0.13 65 1014.2
20260507172410 65 119 1.0 3.0 0.00 0.13 0.13 63 1014.1
20260507171909 65 66 1.0 3.0 0.00 0.13 0.13 63 1014.2
20260507171410 66 122 2.0 3.0 0.00 0.13 0.13 62 1014.1
20260507170910 66 128 2.0 3.0 0.00 0.13 0.13 62 1014.1
20260507165909 66 106 2.0 5.0 0.00 0.13 0.13 61 1014.2
20260507165410 66 121 2.0 3.0 0.00 0.13 0.13 60 1014.2
20260507164910 67 116 2.0 3.0 0.00 0.13 0.13 58 1014.1
20260507164410 67 163 2.0 3.0 0.00 0.13 0.13 56 1014.2
20260507163910 67 119 2.0 3.0 0.00 0.13 0.13 55 1014.2
20260507163408 67 121 3.0 3.0 0.00 0.13 0.13 54 1014.2
20260507162910 68 137 2.0 3.0 0.00 0.13 0.13 51 1014.3
20260507161909 68 128 3.0 5.0 0.00 0.13 0.13 50 1014.3
20260507161409 68 126 3.0 3.0 0.00 0.13 0.13 49 1014.2
20260507160909 68 143 3.0 5.0 0.00 0.13 0.13 48 1014.0
20260507160417 68 156 1.0 3.0 0.00 0.13 0.13 48 1014.0
20260507155910 68 130 3.0 6.0 0.00 0.13 0.13 46 1014.0
20260507155410 68 141 2.0 3.0 0.00 0.13 0.13 46 1014.1
20260507154909 69 118 3.0 5.0 0.00 0.13 0.13 46 1014.1
20260507154410 69 139 2.0 5.0 0.00 0.13 0.13 46 1014.2
20260507153910 69 146 2.0 5.0 0.00 0.13 0.13 45 1014.3
20260507153409 69 145 2.0 5.0 0.00 0.13 0.13 44 1014.3
20260507152910 69 130 3.0 3.0 0.00 0.13 0.13 43 1014.3
20260507152410 69 152 2.0 6.0 0.00 0.13 0.13 47 1014.4
20260507151910 69 120 2.0 5.0 0.00 0.13 0.13 46 1014.5
20260507151409 69 113 2.0 3.0 0.00 0.13 0.13 47 1014.5
20260507150910 69 135 3.0 5.0 0.00 0.13 0.13 47 1014.5
20260507145909 69 134 2.0 5.0 0.00 0.13 0.13 45 1014.6
20260507145410 69 111 2.0 3.0 0.00 0.13 0.13 45 1014.7
20260507144909 69 132 2.0 3.0 0.00 0.13 0.13 44 1014.7
20260507144413 69 125 3.0 5.0 0.00 0.13 0.13 44 1014.7
20260507143909 70 132 3.0 3.0 0.00 0.13 0.13 45 1014.6
20260507143408 69 120 2.0 3.0 0.00 0.13 0.13 44 1014.5
20260507142909 69 127 2.0 3.0 0.00 0.13 0.13 45 1014.6
20260507142408 69 130 3.0 6.0 0.00 0.13 0.13 41 1014.7
20260507141908 69 141 3.0 3.0 0.00 0.13 0.13 43 1014.8
20260507141409 70 139 3.0 5.0 0.00 0.13 0.13 44 1014.9
20260507140910 70 124 2.0 5.0 0.00 0.13 0.13 43 1015.0
20260507140410 69 119 2.0 6.0 0.00 0.13 0.13 44 1015.0
20260507135908 69 134 4.0 6.0 0.00 0.13 0.13 43 1014.9
20260507134409 70 210 2.0 5.0 0.00 0.13 0.13 45 1015.0
20260507133909 70 125 1.0 3.0 0.00 0.13 0.13 45 1015.1
20260507133409 70 109 2.0 6.0 0.00 0.13 0.13 45 1015.2
20260507132909 70 167 2.0 3.0 0.00 0.13 0.13 46 1015.2
20260507130910 69 139 2.0 6.0 0.00 0.13 0.13 54 1015.1
20260507130412 69 134 2.0 3.0 0.00 0.13 0.13 54 1015.2
20260507125909 69 135 2.0 3.0 0.00 0.13 0.13 52 1015.2
20260507125410 69 165 2.0 3.0 0.00 0.13 0.13 51 1015.2
20260507124909 69 238 1.0 3.0 0.00 0.13 0.13 54 1015.4
20260507124412 68 145 1.0 3.0 0.00 0.13 0.13 58 1015.5
20260507123909 68 263 1.0 3.0 0.00 0.13 0.13 63 1015.5
20260507123410 67 152 3.0 6.0 0.00 0.13 0.13 64 1015.6
20260507122909 67 139 4.0 7.0 0.00 0.13 0.13 67 1015.7
20260507122410 67 223 3.0 6.0 0.00 0.13 0.13 65 1015.5